Time,TemperatureF,DewpointF,PressureIn,WindDirection,WindDirectionDegrees,WindSpeedMPH,WindSpeedGustMPH,Humidity,HourlyPrecipIn,Conditions,Clouds,dailyrainin,SoftwareType,DateUTC
2013-02-22 00:22:00,49.0,45.0,-100.00,ENE,75,6.0,-999.0,85,0.00,,,-99.99,,2013-02-22 05:22:00,
2013-02-22 00:32:00,49.0,45.0,-100.00,ENE,75,6.0,-999.0,85,0.00,,,-99.99,,2013-02-22 05:32:00,
2013-02-22 00:42:00,49.0,45.0,-100.00,ENE,75,6.0,-999.0,85,0.00,,,-99.99,,2013-02-22 05:42:00,
2013-02-22 01:22:00,51.0,46.0,-100.00,East,87,10.0,-999.0,82,0.00,,,-99.99,,2013-02-22 06:22:00,
2013-02-22 01:32:00,51.0,46.0,-100.00,East,87,10.0,-999.0,82,0.00,,,-99.99,,2013-02-22 06:32:00,
2013-02-22 01:42:00,51.0,46.0,-100.00,East,87,10.0,-999.0,82,0.00,,,-99.99,,2013-02-22 06:42:00,
2013-02-22 02:22:00,52.0,42.0,-100.00,East,79,13.0,-999.0,68,0.00,,,-99.99,,2013-02-22 07:22:00,
2013-02-22 02:32:00,52.0,42.0,-100.00,East,79,13.0,-999.0,68,0.00,,,-99.99,,2013-02-22 07:32:00,
2013-02-22 02:42:00,52.0,42.0,-100.00,East,79,13.0,-999.0,68,0.00,,,-99.99,,2013-02-22 07:42:00,
2013-02-22 03:21:00,52.0,42.0,-100.00,ENE,72,12.0,-999.0,68,0.00,,,-99.99,,2013-02-22 08:21:00,
2013-02-22 03:32:00,52.0,42.0,-100.00,ENE,72,12.0,-999.0,68,0.00,,,-99.99,,2013-02-22 08:32:00,
2013-02-22 03:42:00,52.0,42.0,-100.00,ENE,72,12.0,-999.0,68,0.00,,,-99.99,,2013-02-22 08:42:00,
2013-02-22 04:22:00,52.0,44.0,-100.00,ENE,58,11.0,-999.0,74,0.00,,,-99.99,,2013-02-22 09:22:00,
2013-02-22 04:32:00,52.0,44.0,-100.00,ENE,58,11.0,-999.0,74,0.00,,,-99.99,,2013-02-22 09:32:00,
2013-02-22 04:42:00,52.0,44.0,-100.00,ENE,58,11.0,-999.0,74,0.00,,,-99.99,,2013-02-22 09:42:00,
2013-02-22 05:22:00,49.0,45.0,-100.00,NE,55,19.0,-999.0,84,0.00,,,-99.99,,2013-02-22 10:22:00,
2013-02-22 05:32:00,49.0,45.0,-100.00,NE,55,19.0,-999.0,84,0.00,,,-99.99,,2013-02-22 10:32:00,
2013-02-22 05:42:00,49.0,45.0,-100.00,NE,55,19.0,-999.0,84,0.00,,,-99.99,,2013-02-22 10:42:00,
2013-02-22 06:22:00,48.0,42.0,-100.00,NE,56,20.0,-999.0,77,0.00,,,-99.99,,2013-02-22 11:22:00,
2013-02-22 06:32:00,48.0,42.0,-100.00,NE,56,20.0,-999.0,77,0.00,,,-99.99,,2013-02-22 11:32:00,
2013-02-22 06:42:00,48.0,42.0,-100.00,NE,56,20.0,-999.0,77,0.00,,,-99.99,,2013-02-22 11:42:00,
2013-02-22 07:22:00,47.0,41.0,-100.00,ENE,61,23.0,-999.0,80,0.00,,,-99.99,,2013-02-22 12:22:00,
2013-02-22 07:32:00,47.0,41.0,-100.00,ENE,61,23.0,-999.0,80,0.00,,,-99.99,,2013-02-22 12:32:00,
2013-02-22 07:42:00,47.0,41.0,-100.00,ENE,61,23.0,-999.0,80,0.00,,,-99.99,,2013-02-22 12:42:00,
2013-02-22 09:22:00,48.0,40.0,-100.00,ENE,76,20.0,-999.0,74,0.00,,,-99.99,,2013-02-22 14:22:00,
2013-02-22 09:32:00,48.0,40.0,-100.00,ENE,76,20.0,-999.0,74,0.00,,,-99.99,,2013-02-22 14:32:00,
2013-02-22 09:42:00,48.0,40.0,-100.00,ENE,76,20.0,-999.0,74,0.00,,,-99.99,,2013-02-22 14:42:00,
2013-02-22 10:22:00,49.0,42.0,-100.00,East,80,18.0,-999.0,76,0.00,,,-99.99,,2013-02-22 15:22:00,
2013-02-22 10:32:00,49.0,42.0,-100.00,East,80,18.0,-999.0,76,0.00,,,-99.99,,2013-02-22 15:32:00,
2013-02-22 10:42:00,49.0,42.0,-100.00,East,80,18.0,-999.0,76,0.00,,,-99.99,,2013-02-22 15:42:00,
2013-02-22 11:22:00,49.0,45.0,-100.00,East,81,15.0,-999.0,87,0.02,,,-99.99,,2013-02-22 16:22:00,
2013-02-22 11:32:00,49.0,45.0,-100.00,East,81,15.0,-999.0,87,0.02,,,-99.99,,2013-02-22 16:32:00,
2013-02-22 11:42:00,49.0,45.0,-100.00,East,81,15.0,-999.0,87,0.02,,,-99.99,,2013-02-22 16:42:00,
2013-02-22 12:11:00,51.0,49.0,-100.00,East,82,13.0,-999.0,92,0.01,,,-99.99,,2013-02-22 17:11:00,
2013-02-22 12:22:00,51.0,49.0,-100.00,East,82,13.0,-999.0,92,0.01,,,-99.99,,2013-02-22 17:22:00,
2013-02-22 12:32:00,51.0,49.0,-100.00,East,82,13.0,-999.0,92,0.01,,,-99.99,,2013-02-22 17:32:00,
2013-02-22 12:42:00,51.0,49.0,-100.00,East,82,13.0,-999.0,92,0.01,,,-99.99,,2013-02-22 17:42:00,
2013-02-22 13:23:00,52.0,50.0,-100.00,ENE,67,13.0,-999.0,95,0.00,,,-99.99,,2013-02-22 18:23:00,
2013-02-22 13:32:00,52.0,50.0,-100.00,ENE,67,13.0,-999.0,95,0.00,,,-99.99,,2013-02-22 18:32:00,
2013-02-22 13:42:00,52.0,50.0,-100.00,ENE,67,13.0,-999.0,95,0.00,,,-99.99,,2013-02-22 18:42:00,
2013-02-22 14:21:00,51.0,51.0,-100.00,ENE,58,13.0,-999.0,98,0.03,,,-99.99,,2013-02-22 19:21:00,
2013-02-22 14:31:00,51.0,51.0,-100.00,ENE,58,13.0,-999.0,98,0.03,,,-99.99,,2013-02-22 19:31:00,
2013-02-22 14:41:00,51.0,51.0,-100.00,ENE,58,13.0,-999.0,98,0.03,,,-99.99,,2013-02-22 19:41:00,
2013-02-22 15:11:00,52.0,51.0,-100.00,ENE,66,14.0,-999.0,97,0.00,,,-99.99,,2013-02-22 20:11:00,
2013-02-22 15:22:00,52.0,51.0,-100.00,ENE,66,14.0,-999.0,97,0.00,,,-99.99,,2013-02-22 20:22:00,
2013-02-22 15:32:00,52.0,51.0,-100.00,ENE,66,14.0,-999.0,97,0.00,,,-99.99,,2013-02-22 20:32:00,
2013-02-22 15:42:00,52.0,51.0,-100.00,ENE,66,14.0,-999.0,97,0.00,,,-99.99,,2013-02-22 20:42:00,
2013-02-22 16:11:00,52.0,50.0,-100.00,NE,51,12.0,-999.0,96,0.00,,,-99.99,,2013-02-22 21:11:00,
2013-02-22 16:21:00,52.0,50.0,-100.00,NE,51,12.0,-999.0,96,0.00,,,-99.99,,2013-02-22 21:21:00,
2013-02-22 16:32:00,52.0,50.0,-100.00,NE,51,12.0,-999.0,96,0.00,,,-99.99,,2013-02-22 21:32:00,
2013-02-22 16:42:00,52.0,50.0,-100.00,NE,51,12.0,-999.0,96,0.00,,,-99.99,,2013-02-22 21:42:00,
2013-02-22 17:11:00,52.0,51.0,-100.00,NE,47,9.0,-999.0,96,0.00,,,-99.99,,2013-02-22 22:11:00,
2013-02-22 17:22:00,52.0,51.0,-100.00,NE,47,9.0,-999.0,96,0.00,,,-99.99,,2013-02-22 22:22:00,
2013-02-22 17:32:00,52.0,51.0,-100.00,NE,47,9.0,-999.0,96,0.00,,,-99.99,,2013-02-22 22:32:00,
2013-02-22 17:42:00,52.0,51.0,-100.00,NE,47,9.0,-999.0,96,0.00,,,-99.99,,2013-02-22 22:42:00,
2013-02-22 18:11:00,52.0,52.0,-100.00,NE,50,10.0,-999.0,97,0.00,,,-99.99,,2013-02-22 23:11:00,
2013-02-22 18:21:00,52.0,52.0,-100.00,NE,50,10.0,-999.0,97,0.00,,,-99.99,,2013-02-22 23:21:00,
2013-02-22 18:32:00,52.0,52.0,-100.00,NE,50,10.0,-999.0,97,0.00,,,-99.99,,2013-02-22 23:32:00,
2013-02-22 18:42:00,52.0,52.0,-100.00,NE,50,10.0,-999.0,97,0.00,,,-99.99,,2013-02-22 23:42:00,
2013-02-22 19:21:00,52.0,52.0,-100.00,NNE,29,9.0,-999.0,98,0.00,,,-99.99,,2013-02-23 00:21:00,
2013-02-22 19:32:00,52.0,52.0,-100.00,NNE,29,9.0,-999.0,98,0.00,,,-99.99,,2013-02-23 00:32:00,
2013-02-22 19:42:00,52.0,52.0,-100.00,NNE,29,9.0,-999.0,98,0.00,,,-99.99,,2013-02-23 00:42:00,
2013-02-22 20:11:00,52.0,51.0,-100.00,NNE,23,6.0,-999.0,99,0.04,,,-99.99,,2013-02-23 01:11:00,
2013-02-22 20:21:00,52.0,51.0,-100.00,NNE,23,6.0,-999.0,99,0.04,,,-99.99,,2013-02-23 01:21:00,
2013-02-22 20:32:00,52.0,51.0,-100.00,NNE,23,6.0,-999.0,99,0.04,,,-99.99,,2013-02-23 01:32:00,
2013-02-22 20:42:00,52.0,51.0,-100.00,NNE,23,6.0,-999.0,99,0.04,,,-99.99,,2013-02-23 01:42:00,
2013-02-22 21:21:00,52.0,52.0,-100.00,North,353,5.0,-999.0,100,0.01,,,-99.99,,2013-02-23 02:21:00,
2013-02-22 21:32:00,52.0,52.0,-100.00,North,353,5.0,-999.0,100,0.01,,,-99.99,,2013-02-23 02:32:00,
2013-02-22 21:42:00,52.0,52.0,-100.00,North,353,5.0,-999.0,100,0.01,,,-99.99,,2013-02-23 02:42:00,
2013-02-22 22:22:00,50.0,-99.9,-100.00,North,358,6.0,-999.0,101,0.01,,,-99.99,,2013-02-23 03:22:00,
2013-02-22 22:32:00,50.0,-99.9,-100.00,North,358,6.0,-999.0,101,0.01,,,-99.99,,2013-02-23 03:32:00,
2013-02-22 22:42:00,50.0,-99.9,-100.00,North,358,6.0,-999.0,101,0.01,,,-99.99,,2013-02-23 03:42:00,
2013-02-22 23:22:00,49.0,-99.9,-100.00,North,353,5.0,-999.0,101,0.00,,,-99.99,,2013-02-23 04:22:00,
2013-02-22 23:32:00,49.0,-99.9,-100.00,North,353,5.0,-999.0,101,0.00,,,-99.99,,2013-02-23 04:32:00,
2013-02-22 23:42:00,49.0,-99.9,-100.00,North,353,5.0,-999.0,101,0.00,,,-99.99,,2013-02-23 04:42:00,